Погода в Трех Рутки

Россия / Республика Марий Эл     56°31′25″N   46°37′43″E
темп.,
°C
ветер,
м/с
пор.,
м/с
влажн.,
%
обл.,
%
осадки,
мм/ч
давл.,
гПа
погр.,
м
21 апреля, ср
ср2100:00+4вюв51553100 0.0 1024600
03:00+3вюв61652100 0.0 1022729
06:00+4юв71752100 0.0 1020965
09:00+2юв81986100 1.9 1019933
12:00+4юв81669100 0.4 1019986
15:00+3юв7158195 1.0 1018848
18:00+3юв71588100 0.0 1017815
21:00+3ююв61590100 0.1 1016655
22 апреля, чт
чт2200:00+3ююв51492100 0.6 1016742
03:00+5ююз4996100 0.7 1017571
06:00+4ю4992100 0.3 1019422
09:00+6ююв41085100 0.3 1020470
12:00+12ю71067100 0.1 10191580
15:00+11юз597422 1.8 10191151
18:00+9зюз387630 0.4 1020425
21:00+5ю22905 0.4 102220
23 апреля, пт
пт2300:00+4ююз22915 0.0 102225
03:00+3ююв22915 0.0 102331
06:00+5ююв25875 0.0 1023123
09:00+11ююв36615 0.0 1023618
12:00+14ююз345299 0.0 10231256
15:00+14ю235199 0.0 1022940
18:00+12вюв246798 0.0 1021104
21:00+9юв2775100 0.0 1021154
24 апреля, сб
сб2400:00+8юв388324 0.0 1019219
03:00+6вюв3794100 0.0 1018149
06:00+7вюв31086100 0.0 1017338
09:00+11вюв4667100 0.0 1015700
12:00+13юв4556100 0.0 10121417
15:00+14юв4653100 0.0 10101694
18:00+12вюв486798 0.1 1009588
21:00+8вюв5129018 0.1 1007532
25 апреля, вс
вс2500:00+7юв51288100 0.0 1005609
03:00+5зюз61093100 4.8 1003572
06:00+4зюз41297100 0.5 1004752
09:00+7зюз611665 0.7 10051498
12:00+10зюз71146100 0.3 10062612
15:00+9зюз595295 0.8 10082009
18:00+7зюз496071 0.8 10091002
21:00+4юз3108099 1.3 1010306